Новый Торъял

Россия / Республика Марий Эл     57°00′11″N   48°44′24″E
темп.,
°C
ветер,
м/с
пор.,
м/с
влажн.,
%
обл.,
%
осадки,
мм/ч
давл.,
гПа
погр.,
м
22 апреля, чт
чт2200:00+2ююв81595100 0.0 1019653
03:00+3ю81495100 0.4 1019588
06:00+3ю71393100 0.1 1020509
09:00+6ююз71185100 0.1 1021709
12:00+8ю6974100 0.0 1021717
15:00+9ююв7107889 0.0 10211006
18:00+9ю61176100 0.3 1021670
21:00+5ю37945 0.9 1022131
23 апреля, пт
пт2300:00+4юз339413 0.0 102344
03:00+3ююз22915 0.0 102420
06:00+5ю34875 0.0 1024100
09:00+10ю34655 0.0 1024641
12:00+13ю345029 0.0 10241637
15:00+14ююв334521 0.0 10221693
18:00+12юв46605 0.0 1022174
21:00+8юв49789 0.0 1022168
24 апреля, сб
сб2400:00+6юв49865 0.0 1021147
03:00+5вюв51091100 0.0 1019202
06:00+5в51189100 0.0 1018344
09:00+8в6976100 0.0 1016553
12:00+9вюв7873100 0.0 10141084
15:00+6в5791100 0.7 1013955
18:00+6вюв5995100 0.8 1011546
21:00+6вюв51096100 1.1 1009780
25 апреля, вс
вс2500:00+5вюв51095100 0.1 1006507
03:00+5вюв61096100 0.4 1003876
06:00+3юз61296100 0.7 1003696
09:00+5юз71082100 0.8 1004950
12:00+7юз101270100 0.1 10051429
15:00+7зюз8116259 0.4 10071460
18:00+7зюз7115539 0.0 1008734
21:00+3юз5127495 0.1 1010394
26 апреля, пн
пн2600:00+2юз6138055 0.0 1010382
03:00+1юз714845 0.0 1011458
06:00+2юз714805 0.0 1012660
09:00+6юз813585 0.0 10121456
12:00+7юз81060100 0.0 10121444
15:00+8юз8105245 0.1 10121662
18:00+7юз610579 0.2 1012772
21:00+3юз410755 0.3 1012209